| time (UTC) | temp F | wind direction | speed MPH | gust MPH | rain 1hr in | rain 24hr in | rain mn in | humidity % | barometer mb |
| 20260502203002 | 82 | 240 | 1.0 | 4.0 | 0.00 | 0.00 | 0.00 | 80 | 1009.0 |
| 20260502202502 | 82 | 240 | 1.0 | 5.0 | 0.00 | 0.00 | 0.00 | 80 | 1009.1 |
| 20260502202002 | 82 | 228 | 1.0 | 5.0 | 0.00 | 0.00 | 0.00 | 79 | 1009.1 |
| 20260502201502 | 83 | 219 | 2.0 | 10.0 | 0.00 | 0.00 | 0.00 | 79 | 1009.2 |
| 20260502201003 | 83 | 242 | 2.0 | 10.0 | 0.00 | 0.00 | 0.00 | 79 | 1009.1 |
| 20260502200502 | 83 | 233 | 2.0 | 9.0 | 0.00 | 0.00 | 0.00 | 78 | 1009.2 |
| 20260502200003 | 83 | 192 | 2.0 | 9.0 | 0.00 | 0.00 | 0.00 | 78 | 1009.1 |
| 20260502195524 | 83 | 216 | 2.0 | 8.0 | 0.00 | 0.00 | 0.00 | 78 | 1009.2 |
| 20260502195003 | 83 | 246 | 2.0 | 8.0 | 0.00 | 0.00 | 0.00 | 78 | 1009.3 |
| 20260502194524 | 83 | 248 | 2.0 | 6.0 | 0.00 | 0.00 | 0.00 | 78 | 1009.5 |
| 20260502194002 | 83 | 239 | 2.0 | 6.0 | 0.00 | 0.00 | 0.00 | 77 | 1009.6 |
| 20260502193503 | 83 | 214 | 2.0 | 7.0 | 0.00 | 0.00 | 0.00 | 77 | 1009.6 |
| 20260502193002 | 84 | 231 | 2.0 | 7.0 | 0.00 | 0.00 | 0.00 | 77 | 1009.6 |
| 20260502192523 | 84 | 250 | 3.0 | 7.0 | 0.00 | 0.00 | 0.00 | 76 | 1009.7 |
| 20260502192002 | 85 | 251 | 3.0 | 9.0 | 0.00 | 0.00 | 0.00 | 75 | 1009.7 |
| 20260502191503 | 86 | 222 | 2.0 | 9.0 | 0.00 | 0.00 | 0.00 | 74 | 1009.7 |
| 20260502191002 | 86 | 214 | 2.0 | 9.0 | 0.00 | 0.00 | 0.00 | 76 | 1009.8 |
| 20260502190524 | 86 | 208 | 3.0 | 9.0 | 0.00 | 0.00 | 0.00 | 75 | 1009.9 |
| 20260502190003 | 85 | 215 | 3.0 | 9.0 | 0.00 | 0.00 | 0.00 | 75 | 1010.0 |
| 20260502185502 | 86 | 250 | 3.0 | 9.0 | 0.00 | 0.00 | 0.00 | 75 | 1010.0 |
| 20260502185003 | 85 | 253 | 3.0 | 10.0 | 0.00 | 0.00 | 0.00 | 74 | 1010.0 |
| 20260502184502 | 87 | 225 | 3.0 | 10.0 | 0.00 | 0.00 | 0.00 | 73 | 1010.1 |
| 20260502184002 | 88 | 202 | 3.0 | 10.0 | 0.00 | 0.00 | 0.00 | 72 | 1010.1 |
| 20260502183502 | 87 | 221 | 3.0 | 12.0 | 0.00 | 0.00 | 0.00 | 73 | 1010.1 |
| 20260502183002 | 87 | 218 | 3.0 | 12.0 | 0.00 | 0.00 | 0.00 | 73 | 1010.1 |
| 20260502182502 | 88 | 222 | 3.0 | 11.0 | 0.00 | 0.00 | 0.00 | 73 | 1010.3 |
| 20260502182002 | 88 | 234 | 2.0 | 10.0 | 0.00 | 0.00 | 0.00 | 72 | 1010.2 |
| 20260502181503 | 88 | 231 | 3.0 | 11.0 | 0.00 | 0.00 | 0.00 | 71 | 1010.4 |
| 20260502181003 | 87 | 236 | 3.0 | 11.0 | 0.00 | 0.00 | 0.00 | 75 | 1010.6 |
| 20260502180503 | 86 | 252 | 3.0 | 10.0 | 0.00 | 0.00 | 0.00 | 76 | 1010.7 |
| 20260502164002 | 84 | 248 | 3.0 | 6.0 | 0.00 | 0.00 | 0.00 | 77 | 1011.0 |
| 20260502163524 | 85 | 243 | 3.0 | 7.0 | 0.00 | 0.00 | 0.00 | 75 | 1010.9 |
| 20260502163024 | 86 | 227 | 3.0 | 9.0 | 0.00 | 0.00 | 0.00 | 75 | 1011.0 |
| 20260502162503 | 86 | 209 | 2.0 | 9.0 | 0.00 | 0.00 | 0.00 | 74 | 1011.1 |
| 20260502162002 | 86 | 223 | 2.0 | 7.0 | 0.00 | 0.00 | 0.00 | 75 | 1011.1 |
| 20260502161502 | 85 | 258 | 4.0 | 8.0 | 0.00 | 0.00 | 0.00 | 76 | 1011.1 |
| 20260502161024 | 85 | 262 | 4.0 | 8.0 | 0.00 | 0.00 | 0.00 | 76 | 1011.1 |
| 20260502160524 | 85 | 260 | 3.0 | 7.0 | 0.00 | 0.00 | 0.00 | 76 | 1011.0 |
| 20260502152002 | 86 | 232 | 3.0 | 13.0 | 0.00 | 0.00 | 0.00 | 75 | 1010.6 |
| 20260502151502 | 85 | 229 | 3.0 | 13.0 | 0.00 | 0.00 | 0.00 | 75 | 1010.6 |
| 20260502151004 | 85 | 227 | 3.0 | 11.0 | 0.00 | 0.00 | 0.00 | 76 | 1010.6 |
| 20260502150503 | 85 | 225 | 3.0 | 9.0 | 0.00 | 0.00 | 0.00 | 75 | 1010.6 |
| 20260502130523 | 80 | 195 | 3.0 | 10.0 | 0.00 | 0.00 | 0.00 | 85 | 1009.6 |
| 20260502123502 | 78 | 180 | 3.0 | 14.0 | 0.00 | 0.00 | 0.00 | 88 | 1009.3 |
| 20260502123002 | 78 | 181 | 3.0 | 14.0 | 0.00 | 0.00 | 0.00 | 88 | 1009.4 |
| 20260502122503 | 78 | 188 | 3.0 | 13.0 | 0.00 | 0.00 | 0.00 | 88 | 1009.3 |
| 20260502122002 | 78 | 189 | 4.0 | 13.0 | 0.00 | 0.00 | 0.00 | 88 | 1009.2 |
| 20260502121524 | 77 | 184 | 4.0 | 12.0 | 0.00 | 0.00 | 0.00 | 88 | 1009.2 |
| 20260502121002 | 77 | 182 | 4.0 | 12.0 | 0.00 | 0.00 | 0.00 | 89 | 1009.1 |
| 20260502120503 | 77 | 183 | 4.0 | 10.0 | 0.00 | 0.00 | 0.00 | 89 | 1009.1 |
| 20260502115523 | 76 | 183 | 3.0 | 11.0 | 0.00 | 0.00 | 0.00 | 89 | 1009.0 |
| 20260502115003 | 76 | 181 | 3.0 | 10.0 | 0.00 | 0.00 | 0.00 | 89 | 1009.0 |
| 20260502114503 | 76 | 177 | 3.0 | 10.0 | 0.00 | 0.00 | 0.00 | 89 | 1009.0 |
| 20260502114002 | 75 | 178 | 4.0 | 12.0 | 0.00 | 0.00 | 0.00 | 89 | 1008.9 |
| 20260502113502 | 75 | 180 | 4.0 | 12.0 | 0.00 | 0.00 | 0.00 | 89 | 1008.8 |
| 20260502113003 | 74 | 177 | 4.0 | 9.0 | 0.00 | 0.00 | 0.00 | 89 | 1008.7 |
| 20260502112523 | 73 | 172 | 3.0 | 9.0 | 0.00 | 0.00 | 0.00 | 89 | 1008.8 |
| 20260502112002 | 71 | 164 | 2.0 | 4.0 | 0.00 | 0.00 | 0.00 | 88 | 1009.0 |
| 20260502111524 | 71 | 157 | 1.0 | 4.0 | 0.00 | 0.00 | 0.00 | 88 | 1009.0 |
| 20260502111002 | 70 | 126 | 0.0 | 2.0 | 0.00 | 0.00 | 0.00 | 87 | 1008.9 |
| 20260502110503 | 70 | 110 | 0.0 | 2.0 | 0.00 | 0.00 | 0.00 | 87 | 1008.9 |
| 20260502110003 | 70 | 105 | 0.0 | 1.0 | 0.00 | 0.00 | 0.00 | 87 | 1008.8 |
| 20260502105502 | 70 | 107 | 0.0 | 2.0 | 0.00 | 0.00 | 0.00 | 87 | 1008.8 |
| 20260502105003 | 69 | 107 | 0.0 | 2.0 | 0.00 | 0.00 | 0.00 | 87 | 1008.8 |
| 20260502104502 | 69 | 0 | 0.0 | 0.0 | 0.00 | 0.00 | 0.00 | 86 | 1008.9 |
| 20260502104002 | 69 | 0 | 0.0 | 0.0 | 0.00 | 0.00 | 0.00 | 87 | 1009.0 |
| 20260502103502 | 69 | 0 | 0.0 | 0.0 | 0.00 | 0.00 | 0.00 | 86 | 1009.0 |
| 20260502103002 | 69 | 0 | 0.0 | 0.0 | 0.00 | 0.00 | 0.00 | 86 | 1009.0 |
| 20260502102503 | 70 | 0 | 0.0 | 0.0 | 0.00 | 0.00 | 0.00 | 86 | 1008.9 |
| 20260502102003 | 70 | 0 | 0.0 | 0.0 | 0.00 | 0.00 | 0.00 | 86 | 1009.0 |
| 20260502101503 | 70 | 0 | 0.0 | 0.0 | 0.00 | 0.00 | 0.00 | 86 | 1009.1 |
| 20260502101002 | 70 | 0 | 0.0 | 0.0 | 0.00 | 0.00 | 0.00 | 86 | 1009.1 |
| 20260502100502 | 70 | 0 | 0.0 | 0.0 | 0.00 | 0.00 | 0.00 | 86 | 1009.1 |
| 20260502091502 | 71 | 0 | 0.0 | 0.0 | 0.00 | 0.00 | 0.00 | 85 | 1009.3 |
| 20260502091003 | 71 | 0 | 0.0 | 0.0 | 0.00 | 0.00 | 0.00 | 85 | 1009.3 |
| 20260502090524 | 71 | 0 | 0.0 | 0.0 | 0.00 | 0.00 | 0.00 | 84 | 1009.3 |
| 20260502071502 | 73 | 184 | 0.0 | 1.0 | 0.00 | 0.00 | 0.00 | 83 | 1009.7 |
| 20260502071003 | 73 | 0 | 0.0 | 0.0 | 0.00 | 0.00 | 0.00 | 83 | 1009.7 |
| 20260502070503 | 73 | 0 | 0.0 | 0.0 | 0.00 | 0.00 | 0.00 | 83 | 1009.7 |
| 20260502070003 | 73 | 0 | 0.0 | 0.0 | 0.00 | 0.00 | 0.00 | 83 | 1009.8 |
| 20260502065503 | 73 | 0 | 0.0 | 0.0 | 0.00 | 0.00 | 0.00 | 83 | 1009.7 |
| 20260502065002 | 73 | 184 | 0.0 | 2.0 | 0.00 | 0.00 | 0.00 | 83 | 1009.7 |
| 20260502064503 | 73 | 197 | 0.0 | 2.0 | 0.00 | 0.00 | 0.00 | 83 | 1009.6 |
| 20260502064023 | 73 | 234 | 0.0 | 2.0 | 0.00 | 0.00 | 0.00 | 83 | 1009.6 |
| 20260502063503 | 73 | 245 | 0.0 | 2.0 | 0.00 | 0.00 | 0.00 | 83 | 1009.6 |
| 20260502063002 | 73 | 239 | 0.0 | 2.0 | 0.00 | 0.00 | 0.00 | 83 | 1009.8 |
| 20260502062523 | 73 | 0 | 0.0 | 0.0 | 0.00 | 0.00 | 0.00 | 83 | 1009.9 |
| 20260502062003 | 73 | 0 | 0.0 | 0.0 | 0.00 | 0.00 | 0.00 | 83 | 1010.0 |
| 20260502061502 | 74 | 183 | 0.0 | 1.0 | 0.00 | 0.00 | 0.00 | 83 | 1009.9 |
| 20260502061003 | 74 | 183 | 0.0 | 1.0 | 0.00 | 0.00 | 0.00 | 83 | 1010.0 |
| 20260502060502 | 74 | 183 | 0.0 | 1.0 | 0.00 | 0.00 | 0.00 | 83 | 1009.9 |
| 20260502060003 | 74 | 0 | 0.0 | 0.0 | 0.00 | 0.00 | 0.00 | 83 | 1010.0 |
| 20260502055502 | 74 | 183 | 0.0 | 2.0 | 0.00 | 0.00 | 0.00 | 83 | 1010.0 |
| 20260502055023 | 74 | 183 | 0.0 | 2.0 | 0.00 | 0.00 | 0.00 | 83 | 1010.0 |
| 20260502054503 | 74 | 187 | 0.0 | 2.0 | 0.00 | 0.00 | 0.00 | 83 | 1010.1 |
| 20260502054004 | 74 | 191 | 0.0 | 3.0 | 0.00 | 0.00 | 0.00 | 83 | 1010.1 |
| 20260502053502 | 74 | 195 | 1.0 | 3.0 | 0.00 | 0.00 | 0.00 | 83 | 1010.1 |
| 20260502053002 | 74 | 193 | 1.0 | 3.0 | 0.00 | 0.00 | 0.00 | 83 | 1010.1 |
| 20260502052502 | 74 | 178 | 0.0 | 3.0 | 0.00 | 0.00 | 0.00 | 83 | 1010.2 |
| 20260502052003 | 74 | 83 | 0.0 | 2.0 | 0.00 | 0.00 | 0.00 | 83 | 1010.2 |
| 20260502051524 | 74 | 211 | 0.0 | 2.0 | 0.00 | 0.00 | 0.00 | 83 | 1010.3 |
| 20260502051002 | 74 | 211 | 0.0 | 2.0 | 0.00 | 0.00 | 0.00 | 83 | 1010.5 |
| 20260502050503 | 74 | 0 | 0.0 | 0.0 | 0.00 | 0.00 | 0.00 | 83 | 1010.5 |
| 20260502050002 | 74 | 159 | 0.0 | 1.0 | 0.00 | 0.00 | 0.00 | 83 | 1010.6 |
| 20260502045523 | 74 | 159 | 0.0 | 1.0 | 0.00 | 0.00 | 0.00 | 82 | 1010.6 |
| 20260502045003 | 74 | 0 | 0.0 | 0.0 | 0.00 | 0.00 | 0.00 | 82 | 1010.5 |
| 20260502044503 | 74 | 192 | 0.0 | 2.0 | 0.00 | 0.00 | 0.00 | 82 | 1010.6 |
| 20260502044023 | 74 | 231 | 0.0 | 3.0 | 0.00 | 0.00 | 0.00 | 82 | 1010.6 |
| 20260502043502 | 74 | 250 | 0.0 | 3.0 | 0.00 | 0.00 | 0.00 | 82 | 1010.6 |
| 20260502043003 | 74 | 259 | 0.0 | 2.0 | 0.00 | 0.00 | 0.00 | 82 | 1010.6 |
| 20260502042502 | 74 | 266 | 0.0 | 2.0 | 0.00 | 0.00 | 0.00 | 82 | 1010.6 |
| 20260502042002 | 74 | 262 | 0.0 | 3.0 | 0.00 | 0.00 | 0.00 | 82 | 1010.6 |
| 20260502041502 | 73 | 261 | 0.0 | 3.0 | 0.00 | 0.00 | 0.00 | 82 | 1010.6 |
| 20260502041002 | 73 | 304 | 0.0 | 1.0 | 0.00 | 0.00 | 0.00 | 82 | 1010.7 |
| 20260502040503 | 73 | 304 | 0.0 | 1.0 | 0.00 | 0.00 | 0.00 | 82 | 1010.7 |
| 20260502040003 | 74 | 304 | 0.0 | 3.0 | 0.00 | 0.00 | 0.00 | 82 | 1010.7 |
| 20260502035502 | 74 | 304 | 0.0 | 3.0 | 0.00 | 0.00 | 0.00 | 82 | 1010.7 |
| 20260502035003 | 74 | 304 | 0.0 | 2.0 | 0.00 | 0.00 | 0.00 | 82 | 1010.7 |
| 20260502034523 | 74 | 304 | 0.0 | 1.0 | 0.00 | 0.00 | 0.00 | 82 | 1010.8 |
| 20260502034002 | 74 | 304 | 0.0 | 2.0 | 0.00 | 0.00 | 0.00 | 82 | 1010.8 |
| 20260502033504 | 74 | 304 | 0.0 | 2.0 | 0.00 | 0.00 | 0.00 | 82 | 1010.8 |
| 20260502033024 | 74 | 0 | 0.0 | 0.0 | 0.00 | 0.00 | 0.00 | 82 | 1010.7 |
| 20260502032502 | 74 | 0 | 0.0 | 0.0 | 0.00 | 0.00 | 0.00 | 82 | 1010.7 |
| 20260502032003 | 74 | 0 | 0.0 | 0.0 | 0.00 | 0.00 | 0.00 | 82 | 1010.6 |
| 20260502031502 | 74 | 0 | 0.0 | 0.0 | 0.00 | 0.00 | 0.00 | 82 | 1010.6 |
| 20260502031024 | 74 | 0 | 0.0 | 0.0 | 0.00 | 0.00 | 0.00 | 82 | 1010.7 |
| 20260502030524 | 74 | 0 | 0.0 | 0.0 | 0.00 | 0.00 | 0.00 | 82 | 1010.7 |
| 20260502030003 | 75 | 0 | 0.0 | 0.0 | 0.00 | 0.00 | 0.00 | 82 | 1010.7 |
| 20260502025502 | 75 | 0 | 0.0 | 0.0 | 0.00 | 0.00 | 0.00 | 82 | 1010.8 |
| 20260502025003 | 75 | 0 | 0.0 | 0.0 | 0.00 | 0.00 | 0.00 | 82 | 1010.8 |
| 20260502024523 | 75 | 257 | 0.0 | 2.0 | 0.00 | 0.00 | 0.00 | 82 | 1010.8 |
| 20260502024023 | 75 | 257 | 0.0 | 2.0 | 0.00 | 0.00 | 0.00 | 82 | 1010.8 |
| 20260502023503 | 75 | 257 | 0.0 | 1.0 | 0.00 | 0.00 | 0.00 | 82 | 1010.7 |
| 20260502023003 | 75 | 257 | 0.0 | 1.0 | 0.00 | 0.00 | 0.00 | 81 | 1010.7 |
| 20260502022502 | 75 | 257 | 0.0 | 1.0 | 0.00 | 0.00 | 0.00 | 81 | 1010.8 |
| 20260502022002 | 75 | 257 | 0.0 | 2.0 | 0.00 | 0.00 | 0.00 | 81 | 1010.7 |
| 20260502021502 | 75 | 274 | 1.0 | 4.0 | 0.00 | 0.00 | 0.00 | 81 | 1010.7 |
| 20260502021003 | 75 | 280 | 1.0 | 4.0 | 0.00 | 0.00 | 0.00 | 81 | 1010.7 |
| 20260502020503 | 75 | 291 | 1.0 | 2.0 | 0.00 | 0.00 | 0.00 | 81 | 1010.7 |
| 20260502020004 | 76 | 291 | 0.0 | 2.0 | 0.00 | 0.00 | 0.00 | 81 | 1010.6 |
| 20260502015503 | 76 | 279 | 1.0 | 3.0 | 0.00 | 0.00 | 0.00 | 81 | 1010.6 |
| 20260502015002 | 76 | 277 | 1.0 | 3.0 | 0.00 | 0.00 | 0.00 | 81 | 1010.6 |
| 20260502014503 | 76 | 270 | 0.0 | 3.0 | 0.00 | 0.00 | 0.00 | 81 | 1010.6 |
| 20260502014003 | 76 | 267 | 1.0 | 3.0 | 0.00 | 0.00 | 0.00 | 81 | 1010.6 |
| 20260502013502 | 76 | 260 | 0.0 | 2.0 | 0.00 | 0.00 | 0.00 | 80 | 1010.5 |
| 20260502013002 | 76 | 266 | 1.0 | 5.0 | 0.00 | 0.00 | 0.00 | 80 | 1010.4 |
| 20260502012503 | 76 | 271 | 1.0 | 5.0 | 0.00 | 0.00 | 0.00 | 80 | 1010.4 |
| 20260502012003 | 76 | 269 | 1.0 | 4.0 | 0.00 | 0.00 | 0.00 | 80 | 1010.2 |
| 20260502011503 | 76 | 270 | 0.0 | 3.0 | 0.00 | 0.00 | 0.00 | 80 | 1010.2 |
| 20260502011002 | 76 | 281 | 0.0 | 2.0 | 0.00 | 0.00 | 0.00 | 80 | 1010.1 |
| 20260502010503 | 76 | 270 | 1.0 | 3.0 | 0.00 | 0.00 | 0.00 | 80 | 1010.1 |
| 20260502010003 | 76 | 255 | 1.0 | 3.0 | 0.00 | 0.00 | 0.00 | 80 | 1010.1 |
| 20260502005503 | 76 | 256 | 1.0 | 2.0 | 0.00 | 0.00 | 0.00 | 80 | 1010.1 |
| 20260502005024 | 76 | 275 | 1.0 | 4.0 | 0.00 | 0.00 | 0.00 | 80 | 1010.1 |
| 20260502004502 | 76 | 276 | 0.0 | 4.0 | 0.00 | 0.00 | 0.00 | 79 | 1010.0 |
| 20260502004003 | 76 | 264 | 0.0 | 2.0 | 0.00 | 0.00 | 0.00 | 79 | 1010.1 |
| 20260502003524 | 76 | 273 | 1.0 | 2.0 | 0.00 | 0.00 | 0.00 | 79 | 1009.9 |
| 20260502003023 | 77 | 277 | 1.0 | 3.0 | 0.00 | 0.00 | 0.00 | 79 | 1009.9 |
| 20260502002503 | 77 | 274 | 1.0 | 4.0 | 0.00 | 0.00 | 0.00 | 79 | 1009.9 |
| 20260502002002 | 77 | 267 | 1.0 | 4.0 | 0.00 | 0.00 | 0.00 | 78 | 1009.8 |
| 20260502001502 | 77 | 235 | 0.0 | 2.0 | 0.00 | 0.00 | 0.00 | 78 | 1009.8 |
| 20260502001003 | 77 | 251 | 1.0 | 3.0 | 0.00 | 0.00 | 0.00 | 78 | 1009.7 |
| 20260502000503 | 78 | 265 | 1.0 | 4.0 | 0.00 | 0.00 | 0.00 | 78 | 1009.6 |
| 20260502000002 | 78 | 277 | 1.0 | 4.0 | 0.00 | 0.00 | 0.00 | 77 | 1009.6 |
| 20260501235524 | 78 | 277 | 1.0 | 4.0 | 0.00 | 0.00 | 0.00 | 77 | 1009.6 |
| 20260501235002 | 78 | 268 | 2.0 | 6.0 | 0.00 | 0.00 | 0.00 | 77 | 1009.5 |
| 20260501234524 | 78 | 270 | 2.0 | 6.0 | 0.00 | 0.00 | 0.00 | 77 | 1009.5 |
| 20260501234003 | 79 | 271 | 1.0 | 5.0 | 0.00 | 0.00 | 0.00 | 76 | 1009.6 |
| 20260501233504 | 79 | 275 | 2.0 | 5.0 | 0.00 | 0.00 | 0.00 | 76 | 1009.5 |
| 20260501233003 | 79 | 274 | 2.0 | 5.0 | 0.00 | 0.00 | 0.00 | 76 | 1009.4 |
| 20260501232503 | 79 | 261 | 2.0 | 5.0 | 0.00 | 0.00 | 0.00 | 75 | 1009.3 |
| 20260501232002 | 80 | 270 | 3.0 | 7.0 | 0.00 | 0.00 | 0.00 | 75 | 1009.2 |
| 20260501231503 | 80 | 273 | 3.0 | 10.0 | 0.00 | 0.00 | 0.00 | 75 | 1009.2 |
| 20260501231002 | 80 | 265 | 2.0 | 10.0 | 0.00 | 0.00 | 0.00 | 74 | 1009.2 |
| 20260501230503 | 80 | 263 | 2.0 | 6.0 | 0.00 | 0.00 | 0.00 | 74 | 1009.2 |
| 20260501230003 | 80 | 267 | 2.0 | 6.0 | 0.00 | 0.00 | 0.00 | 74 | 1009.2 |
| 20260501225503 | 81 | 260 | 2.0 | 6.0 | 0.00 | 0.00 | 0.00 | 73 | 1009.1 |
| 20260501225003 | 81 | 260 | 2.0 | 9.0 | 0.00 | 0.00 | 0.00 | 73 | 1009.0 |
| 20260501224503 | 81 | 267 | 3.0 | 9.0 | 0.00 | 0.00 | 0.00 | 73 | 1009.0 |
| 20260501224002 | 81 | 271 | 3.0 | 7.0 | 0.00 | 0.00 | 0.00 | 71 | 1009.0 |
| 20260501223502 | 81 | 276 | 4.0 | 9.0 | 0.00 | 0.00 | 0.00 | 71 | 1009.0 |
| 20260501223003 | 82 | 275 | 3.0 | 9.0 | 0.00 | 0.00 | 0.00 | 70 | 1009.0 |
| 20260501222503 | 83 | 249 | 2.0 | 6.0 | 0.00 | 0.00 | 0.00 | 68 | 1009.0 |
| 20260501222002 | 83 | 233 | 2.0 | 5.0 | 0.00 | 0.00 | 0.00 | 69 | 1008.9 |
| 20260501221502 | 83 | 256 | 2.0 | 5.0 | 0.00 | 0.00 | 0.00 | 69 | 1008.9 |
| 20260501221002 | 83 | 245 | 2.0 | 5.0 | 0.00 | 0.00 | 0.00 | 69 | 1008.9 |
| 20260501220503 | 83 | 241 | 2.0 | 6.0 | 0.00 | 0.00 | 0.00 | 69 | 1009.0 |
| 20260501215523 | 82 | 257 | 3.0 | 8.0 | 0.00 | 0.00 | 0.00 | 70 | 1009.0 |
| 20260501215023 | 82 | 250 | 3.0 | 7.0 | 0.00 | 0.00 | 0.00 | 69 | 1008.9 |
| 20260501214523 | 82 | 262 | 4.0 | 11.0 | 0.00 | 0.00 | 0.00 | 69 | 1009.0 |
| 20260501214023 | 82 | 272 | 4.0 | 11.0 | 0.00 | 0.00 | 0.00 | 69 | 1009.1 |
| 20260501213502 | 82 | 272 | 3.0 | 7.0 | 0.00 | 0.00 | 0.00 | 69 | 1009.1 |
| 20260501213003 | 83 | 256 | 2.0 | 5.0 | 0.00 | 0.00 | 0.00 | 69 | 1009.2 |
| 20260501212523 | 83 | 257 | 3.0 | 8.0 | 0.00 | 0.00 | 0.00 | 69 | 1009.1 |
| 20260501212003 | 82 | 266 | 3.0 | 8.0 | 0.00 | 0.00 | 0.00 | 70 | 1009.1 |
| 20260501211503 | 83 | 259 | 2.0 | 7.0 | 0.00 | 0.00 | 0.00 | 70 | 1009.1 |
| 20260501211002 | 81 | 262 | 4.0 | 11.0 | 0.00 | 0.00 | 0.00 | 71 | 1009.1 |
| 20260501210503 | 80 | 267 | 5.0 | 11.0 | 0.00 | 0.00 | 0.00 | 73 | 1009.3 |
| 20260501210024 | 81 | 269 | 5.0 | 12.0 | 0.00 | 0.00 | 0.00 | 71 | 1009.4 |
| 20260501205503 | 82 | 267 | 4.0 | 12.0 | 0.00 | 0.00 | 0.00 | 70 | 1009.5 |
| 20260501205003 | 84 | 265 | 3.0 | 12.0 | 0.00 | 0.00 | 0.00 | 68 | 1009.6 |
| 20260501204502 | 83 | 271 | 5.0 | 11.0 | 0.00 | 0.00 | 0.00 | 70 | 1009.6 |
| 20260501204003 | 82 | 272 | 5.0 | 11.0 | 0.00 | 0.00 | 0.00 | 71 | 1009.6 |
| 20260501203502 | 82 | 269 | 4.0 | 10.0 | 0.00 | 0.00 | 0.00 | 70 | 1009.6 |